FENGYUN 1C DEB, 33698

Orbit data source: Space-Track

FENGYUN 1C DEB, 33698 is space debris in SSO originally from a launch on Mon, 10 May 1999 UTC launched from the Taiyaun Space Center, China (TSC). Fengyun 1C debris stems from the Chinese weather satellite Fengyun-1C, which was intentionally destroyed by a Chinese anti-satellite missile in 2007. This event dramatically increased the amount of space debris, with thousands of trackable fragments posing hazards to satellites and human spaceflight. The Fengyun 1C debris cloud has become a focal point in discussions about space sustainability and the need for international regulations to prevent the creation of new debris.

Loading next visibility...
Identifier
33698, 1999-025DGK
Orbit
SSO
Country
Flag of CNCN / PRC
Related business
Manufacturer
Unknown
Mission
Spacecraft
Bus & Motor
Unknown
Mass
Unknown
Launch date (UTC)
1999-05-10 (27 years ago)
Launch vehicle
Unknown
Launch site
Taiyaun Space Center, China (TSC)
Object type
Payload
Rocket body
Debris
Shape & HBR
Unknown shape, 0.1 m
Radar Cross Section
Small (<0.1 m²)

Expand to show TLE details & history
Last TLE update: 3 days ago

TLE from 3 days ago
0 FENGYUN 1C DEB
1 33698U 99025DGK 26234.25449566  .00000580  00000-0  12883-3 0  9990
2 33698  99.6454 238.2677 0136304 188.0329 171.8682 14.56443596993114
Epoch: 2026-08-22T06:06Z
TLE epoch observation values (Epoch: 2026-08-22T06:06:28.425Z)
Latitude
-0.00002°
Longitude
176.08173°
Altitude
803.229 km
Speed
7.401 km/s
True Right ascension
15h 53m 04s
True Declination
0° 00' 00"
Sunlit
Object was in daylight at epoch
Visualization orbit readout
Latitude
Unknown
Longitude
Unknown
Altitude
Unknown
Speed
Unknown
Apparent Right ascension
Unknown
Apparent Declination
Unknown
Sunlit
N/A
Visualization observer readout
Local Sidereal Time
14:51:23
Azimuth
Unknown
Elevation
Unknown
Doppler factor
Unknown
Orbital elements
Apogee altitude
798.341 km
Perigee altitude
605.335 km
Semi-major axis
7,079.975 km
Eccentricity
0.01363
Inclination
99.6454°
RAAN
238.2677°
Arg. of periapsis
188.0329°
True anomaly
172.08547°
Mean anomaly
171.8682°
Eccentric anomaly
171.9772°
Mean motion
3.64331 °/min
Orbital period
98.81 mins
BSTAR
0.00012883
Loading maneuver chart data...
Computing Atmospheric mass density...
Loading historical data...
Loading historical data...
Loading historical data...
Loading historical data...
Loading historical data...
Loading historical data...
Loading historical data...

Documentation

Showing up to 5 results
|